User: anonymous   Login
Location: Cluny
(50.9333°N, 112.8167°W)
Time: 15:03:46
(UTC-06:00)
Language:

Cosmos 1743 Rocket - Orbit

View from above orbital plane
View from above orbital plane
View from above satellite
View from above satellite

Ground track
Ground track

The orbit data is extracted from the following two-line orbital elements,

1 16720U 86034B   16235.86764462  .00000110  00000-0  10460-4 0  9994
2 16720  82.5565 159.6206 0020552  10.2559  26.3169 14.83242752635047
Epoch (UTC): 22 August 2016 20:49:24
Eccentricity: 0.0020552
inclination: 82.5565°
perigee height: 605 km
apogee height: 633 km
right ascension of ascending node: 159.6206°
argument of perigee: 10.2559°
revolutions per day: 14.83242752
mean anomaly at epoch: 26.3169°
orbit number at epoch: 63504

The dashed part of the orbit path shows where the satellite is in the earth's shadow,  

DLR